Weather in Mezhbornoye

Russia / Kurgan Oblast     54°57′02″N   65°06′10″E
temp.,
°C
wind,
m/s
gust,
m/s
humid.,
%
clouds,
%
prec.,
mm/h
press.,
hPa
HPBL,
m
14 june, mon
mon1423:00+18se225123 0.0 102311
02:00+16sse22525 0.0 102311
05:00+15s22555 0.0 102412
08:00+21ssw23485 0.0 1024220
11:00+27sw33356 0.0 1024952
14:00+29sw3426100 0.0 10222704
17:00+28wsw452823 0.0 10222565
20:00+24sw23495 0.0 102118
15 june, tue
tue1523:00+19ssw22465 0.0 102012
02:00+18s3352100 0.0 102029
05:00+17ssw3557100 0.0 102068
08:00+23sw4750100 0.0 1019286
11:00+28wsw573382 0.0 10181207
14:00+30wsw6728100 0.0 10172618
17:00+30wsw563272 0.0 10162707
20:00+25wsw335191 0.0 101528
16 june, wed
wed1623:00+21nnw226364 0.0 101517
02:00+18sse00765 0.0 101511
05:00+18ssw227282 0.0 101517
08:00+24ssw345549 0.0 1015299
11:00+29w46397 0.0 10141170
14:00+31w6103421 0.0 10132551
17:00+30wnw58375 0.0 10121845
20:00+26nne34581 0.0 101170
17 june, thu
thu1723:00+20se11765 1.1 101211
02:00+18ene22844 1.1 101012
05:00+18sw228479 1.1 101025
08:00+23wsw236430 0.0 1009316
11:00+29sw464028 0.0 10071121
14:00+32sw593094 0.0 10053158
17:00+21se91366100 0.1 1003262
20:00+21sse4116586 0.5 1001245
18 june, fri
fri1823:00+17nnw5129163 2.5 1002359
02:00+15nw71293100 0.0 1003641
05:00+10nnw81484100 0.0 1007694
08:00+11n9116699 0.0 10091011
11:00+14nnw9114947 0.0 10101476
14:00+16n9124358 0.0 10101966
17:00+15n7134565 0.0 10122022
20:00+15n37445 0.0 1011178